This is the latest recevied weather packets stored in our database for station/object DL1MMS-10. If no packets are shown the sender has not sent any weather packets the latest 10 day(s).
| Time | Temp. | Humidity | Pressure | Rain* | Wind** | Luminosity | Snow |
|---|---|---|---|---|---|---|---|
| 1777710818 | 16.67° C | 52% | 1023.3 hPa | 0 mm | - | - | - |
| 1777710517 | 16.11° C | 52% | 1023.2 hPa | 0 mm | - | - | - |
| 1777710217 | 16.11° C | 53% | 1023.1 hPa | 0 mm | - | - | - |
| 1777709917 | 15.56° C | 55% | 1023.2 hPa | 0 mm | - | - | - |
| 1777709616 | 15.56° C | 57% | 1023.3 hPa | 0 mm | - | - | - |
| 1777709316 | 15° C | 58% | 1023.4 hPa | 0 mm | - | - | - |
| 1777709016 | 14.44° C | 59% | 1023.3 hPa | 0 mm | - | - | - |
| 1777708716 | 13.89° C | 63% | 1023.3 hPa | 0 mm | - | - | - |
| 1777708415 | 13.89° C | 63% | 1023.4 hPa | 0 mm | - | - | - |
| 1777708115 | 13.33° C | 64% | 1023.4 hPa | 0 mm | - | - | - |
| 1777707815 | 12.78° C | 66% | 1023.5 hPa | 0 mm | - | - | - |
| 1777707515 | 12.78° C | 66% | 1023.5 hPa | 0 mm | - | - | - |
| 1777707214 | 12.22° C | 67% | 1023.5 hPa | 0 mm | - | - | - |
| 1777706914 | 11.67° C | 68% | 1023.6 hPa | 0 mm | - | - | - |
| 1777706614 | 11.11° C | 67% | 1023.3 hPa | 0 mm | - | - | - |
| 1777706313 | 11.11° C | 68% | 1023.4 hPa | 0 mm | - | - | - |
| 1777706013 | 10.56° C | 68% | 1023.5 hPa | 0 mm | - | - | - |
| 1777705713 | 10° C | 69% | 1023.6 hPa | 0 mm | - | - | - |
| 1777705413 | 10° C | 70% | 1023.7 hPa | 0 mm | - | - | - |
| 1777705112 | 9.44° C | 71% | 1023.5 hPa | 0 mm | - | - | - |
| 1777704812 | 8.89° C | 71% | 1023.7 hPa | 0 mm | - | - | - |
| 1777704512 | 8.89° C | 72% | 1023.6 hPa | 0 mm | - | - | - |
| 1777704211 | 8.33° C | 72% | 1023.7 hPa | 0 mm | - | - | - |
| 1777703911 | 7.78° C | 72% | 1023.6 hPa | 0 mm | - | - | - |
| 1777703611 | 7.78° C | 73% | 1023.6 hPa | 0 mm | - | - | - |
* Rain latest hour (hover to see other rain measurements)
** Current wind speed in m/s (hover to see current wind gust speed)